Regional Weather Roundup
Issued by NWS Sioux Falls, SD

Home | Current Version | Previous Version | Graphics & Text | Print | Product List | Glossary On
Versions: 1 2 3 4 5 6 7 8 9 10 11 12 13 14 15 16 17 18 19 20 21 22 23 24 25 26 27 28 29 30 31 32 33 34 35 36 37 38 39 40 41 42 43 44 45 46 47 48 49 50
103
ASUS43 KFSD 231102
RWRFSD

WEATHER ROUNDUP FOR SE SOUTH DAKOTA/SW MINNESOTA/NW IOWA
NATIONAL WEATHER SERVICE SIOUX FALLS SD
600 AM CDT TUE AUG 23 2016

NOTE: "FAIR" INDICATES FEW OR NO CLOUDS BELOW 12,000 FEET WITH NO
SIGNIFICANT WEATHER AND OR OBSTRUCTIONS TO VISIBILITY.


SDZ038>040-050-052>070-231200-
SOUTHEAST SOUTH DAKOTA

CITY           SKY/WX    TMP DP  RH WIND       PRES   REMARKS
BROOKINGS      PTCLDY    65  59  81 S14       29.83S
CHAMBERLAIN    CLEAR     73  59  62 S14G20    29.73S
HURON          CLOUDY    67  59  75 S16G24    29.74R
MADISON        FAIR      64  63  94 S12       29.84F
MITCHELL       CLEAR     67  59  75 SE10      29.78S
SIOUX FALLS    MOCLDY    68  61  78 S15       29.85F
WINNER         FAIR      73  58  59 S20       29.73F
YANKTON        CLEAR     70  57  64 S15G22    29.82F
$$

MNZ071-072-080-081-089-090-097-098-231200-
SOUTHWEST MINNESOTA

CITY           SKY/WX    TMP DP  RH WIND       PRES   REMARKS
JACKSON        PTCLDY    64  57  77 S9G16     29.94S
LUVERNE        PTCLDY    63  59  88 SE5       29.89S
MARSHALL       PTCLDY    68  61  78 S16       29.84S
MONTEVIDEO     PTCLDY    66  61  82 SW10      29.83F
REDWOOD FALLS  PTCLDY    66  60  81 S13       29.87R
TRACY          CLOUDY    67  62  82 S16G23    29.87S
WINDOM         CLEAR     66  61  82 S13G18    29.91S
WORTHINGTON    CLEAR     64  60  87 S14G20    29.91F
$$

IAZ001>003-012>014-020>022-031-032-NEZ013-014-SDZ071-231200-
NORTHWEST IOWA

CITY           SKY/WX    TMP DP  RH WIND       PRES   REMARKS
CHEROKEE       MOCLDY    65  62  88 S9        29.92F
DENISON        MOCLDY    66  61  82 S12G20    29.94S
ESTHERVILLE    PTCLDY    61  60  97 S10       29.95S
LE MARS        MOCLDY    68  61  77 S12G20    29.90S
ORANGE CITY    PTCLDY    66  63  88 S8        29.91S
SHELDON        PTCLDY    63  63 100 S10       29.90S
SIOUX CITY     CLOUDY    65  61  87 SE9       29.90S
SPENCER        MOCLDY    62  59  90 S9        29.94S
STORM LAKE     PTCLDY    63  61  94 S10       29.95F
$$

ABBREVIATIONS USED IN REMARKS
   TC - TEMPERATURE IN CELSIUS
  WCI - WIND CHILL INDEX
   HX - HEAT INDEX
  VSB - VISIBILITY





USA.gov is the U.S. government's official web portal to all federal, state and local government web resources and services.